Torna al catalogo

STARLINK-31386

AttivoComunicazioniVLEO
NORAD 59298·PAYLOAD·🇺🇸 United States

Lanciato Mar 24, 2024 da Cape Canaveral Space Force Station

Loading…

Prossimi Passaggi (prossime 24 ore)

TLE

AggiornatoSource: CelesTrak SupGP

Epoca: Sep 15, 2026, 02:42 UTC

1 59298C 24056C   26258.11298611 -.00037009  00000+0 -13407-2 0  2587
2 59298  42.9993 240.9265 0001369 268.4940 119.4809 15.27591477    12

Traccia STARLINK-31386 in tempo reale con AllMySat

Download on the App Store